Regional Weather Roundup
Issued by NWS Upton, NY

Current Version | Previous Version | Text Only | Print | Product List | Glossary On
Versions: 1 2 3 4 5 6 7 8 9 10 11 12 13 14 15 16 17 18 19 20 21 22 23 24 25 26 27 28 29 30 31 32 33 34 35 36 37 38 39 40 41 42 43 44 45 46 47 48 49 50
000 ASUS41 KOKX 010405 RWROKX REGIONAL WEATHER ROUNDUP NATIONAL WEATHER SERVICE NEW YORK NY 1200 AM EDT WED OCT 01 2014 NOTE: "FAIR" INDICATES FEW OR NO CLOUDS BELOW 12,000 FEET WITH NO SIGNIFICANT WEATHER AND/OR OBSTRUCTIONS TO VISIBILITY. NYZ071-072-176-178-NJZ106-104-010500- NEW YORK CITY METRO AREA CITY SKY/WX TMP DP RH WIND PRES REMARKS CENTRAL PARK LGT RAIN 64 57 78 NE7 30.02S LAGUARDIA APRT LGT RAIN 63 58 83 N7 29.99S KENNEDY INTL LGT RAIN 64 59 83 NE7 29.99S NEWARK/LIBERTY MOCLDY 65 58 78 NE9 29.98F BRNX BOT. GARD N/A 61 55 82 N2 30.01R TETERBORO CLOUDY 64 56 75 NE5 29.98F $$ NYZ177-179-078>081-010500- LONG ISLAND NEW YORK CITY SKY/WX TMP DP RH WIND PRES REMARKS FARMINGDALE CLOUDY 62 59 90 NE6 29.99S ISLIP LGT RAIN 61 58 90 NE6 29.97S SHIRLEY CLOUDY 60 58 92 CALM 30.00S WESTHAMPTON LGT RAIN 61 57 87 N7 30.00S MONTAUK POINT N/A 60 57 89 N9 30.00S $$ NYZ052-065-067-010500- HUDSON VALLEY CITY SKY/WX TMP DP RH WIND PRES REMARKS WHITE PLAINS MOCLDY 60 56 86 N6 30.00S NEWBURGH MOCLDY 59 57 94 E8 30.02 MONTGOMERY PTCLDY 54 53 97 N5 30.01S POUGHKEEPSIE CLOUDY 59 55 87 CALM 30.01S ALBANY CLOUDY 61 55 81 CALM 30.02S $$ NJZ001-105-106-008-010-013-015-019>022-104-010500- NEW JERSEY CITY SKY/WX TMP DP RH WIND PRES REMARKS NEWARK/LIBERTY MOCLDY 65 58 78 NE9 29.98F TETERBORO CLOUDY 64 56 75 NE5 29.98F CALDWELL CLOUDY 62 55 77 E8 30.00S MORRISTOWN MOCLDY 61 57 88 NE3 29.99F SOMERVILLE MOCLDY 62 57 83 CALM 29.97S LINDEN CLOUDY 69 61 75 E9 29.99F SUSSEX MOCLDY 61 56 83 NE3 30.00R ANDOVER N/A 57 56 96 CALM 29.99F TRENTON MOCLDY 62 58 86 E5 29.97S MILLVILLE MOCLDY 62 59 90 NE6 29.95S ATLANTIC CITY CLOUDY 61 60 97 N7 29.95R WRIGHTSTOWN CLOUDY 60 60 99 NE5 29.95S TOMS RIVER CLOUDY 63 61 94 NE5 29.96F BELMAR CLOUDY 63 57 82 NE9 29.97F $$ PAZ047>061-062-071-010500- EASTERN PENNSYLVANIA CITY SKY/WX TMP DP RH WIND PRES REMARKS PHILADELPHIA MOCLDY 63 58 83 NE6 29.97R ALLENTOWN MOCLDY 62 58 86 CALM 29.99R SCRANTON MOCLDY 62 56 80 CALM 29.97F $$ CTZ002-004>006-009-010-012-RIZ004-006-007-MAZ004-011-015-010500- SOUTHERN NEW ENGLAND IN CT CITY SKY/WX TMP DP RH WIND PRES REMARKS BRADLEY INTL CLOUDY 59 56 89 N6 30.02S HARTFORD CLOUDY 59 56 89 VRB6 30.02S DANBURY CLOUDY 59 55 87 NE5 30.02S WTRBRY/OXFORD CLOUDY 57 54 88 NE5 30.03S BRIDGEPORT CLOUDY 61 58 90 NE6 30.00S MERIDEN CLOUDY 59 55 87 NE3 30.01F NEW HAVEN CLOUDY 62 57 83 N9 30.00S CHESTER LGT RAIN 57 55 94 N5 30.02S GROTON CLOUDY 57 56 96 N9 29.99F WILLIMANTIC CLOUDY 58 55 90 N6 30.02S IN RI CITY SKY/WX TMP DP RH WIND PRES REMARKS PROVIDENCE CLOUDY 57 55 93 N10 30.02F BLOCK ISLAND CLOUDY 59 55 88 NE14G20 29.99S WESTERLY CLOUDY 58 55 90 N8 30.00F IN MA CITY SKY/WX TMP DP RH WIND PRES REMARKS BOSTON LGT RAIN 57 55 93 N7 30.04R WORCESTER CLOUDY 54 54 100 NE9 30.04S WESTFIELD CLOUDY 59 56 89 N5 30.03S PROVINCETOWN CLOUDY 61 57 88 NE14 30.00F NANTUCKET CLOUDY 63 61 93 N13 29.96S FOG $$ ANZ330-335-338-340-345-350-353-355-010500- COASTAL MARINE OBSERVATIONS STATION/POSITION TIME SKY/WX TEMP WIND PRES VSBY WAVE AIR SEA DIR/SP/G HT/PER (UTC) (F) (DEG/KT/KT) (MB) (MI) (FT/S) NY HARB ENTRANCE NOT AVBL 4S FIRE IS 0400 68 N/A 4/ 5 20S FIRE ISLAND 0400 63 67 50/ 19/ 21 1013.9 5/ 5 23SW MTP 0400 N/A 5/ 5 HUDSON CANYON 0400 67 70 60/ 17/ 19 1012.7 5/ 6 EXECUTION ROCKS 0400 64 68 40/ 14/ 17 N/A WESTERN LI SOUND 0400 63 50/ 12/ 16 N/A 2/ 4 CENTRAL LI SOUND 0300 61 68 50/ 12/ 16 N/A 2/ 4 EASTERN LI SOUND 0300 60 67 30/ 10/ 14 N/A ROBBINS REEF 0400 64 60/ 13/ 15 1014.1 $$ >>>>>>>>>>>>>>>>>>>>>>>>>>>> KEY <<<<<<<<<<<<<<<<<<<<<<<<<<< > < > SKY/WX - SKY CONDITION/PRESENT WEATHER < > TMP - TEMPERATURE IN FAHRENHEIT < > DP - DEWPOINT IN FAHRENHEIT < > RH - RELATIVE HUMIDITY IN PERCENT < > WIND - DIRECTION AND SPEED IN MPH < > PRES - MEAN SEA LEVEL PRESSURE IN INCHES OF HG < > WCI - WIND CHILL INDEX < > VSB - VISIBILITY IN MILES < > HX - HEAT INDEX < > TC - TEMPERATURE IN CELSIUS < > VRB - VARIABLE WIND DIRECTION < > < >>>>>>>>>>>>>>>>>>>>>>>>>>>> KEY <<<<<<<<<<<<<<<<<<<<<<<<<<<

USA.gov is the U.S. government's official web portal to all federal, state and local government web resources and services.